SCP
0 0 0 0 0 0 0 0 0 0 0 0 0 0 0 0 0 0 0 0 0 0 0 0 0 0 0 0 0 0 0 0 0 0 0 0 0 0
0 0 0 0 0 0 0 0 0 0 0 0 0 0 0 0 0 0 0 0 0 0 0 0 0 0 0 0 0 0 0 0 0 0 0 0 0 0
0 0 0 0 0 0 0 0 0 0 0 0 0 0 0 0 0 0 0 0 0 0 0 0 0 0 0 0 0 0 0 0 0 0 0 0 0 0
0 0 0 0 0 0 0 0 0 0 0 0 0 0 0 0 0 0 0 0 0 0 0 0 0 0 0 0 0 0 0 0 0 0 0 0 0 0
0 0 0 0 0 0 0 0 0 0 0 0 0 0 0 0 0 0 0 0 0 0 0 0 0 0 0 0 0 0 0 0 0 0 0 0 0 0
0 0 0 0 0 0 0 0 0 0 0 0 0 0 0 1 1 0 0 0 0 0 0 0 0 0 0 0 0 0 0 0 0 0 0 0 0 0
0 0 0 0 0 0 0 0 0 0 0 0 0 1 1 1 1 1 1 1 1 1 1 0 0 0 0 0 0 0 0 0 0 0 0 0 0 0
1 1 1 0 0 0 0 0 0 0 0 1 1 1 1 1 2 1 1 1 1 1 1 1 0 1 1 0 0 0 0 0 0 0 0 0 0 0
1 1 1 1 0 0 0 0 0 0 0 1 1 1 2 2 3 3 3 2 2 1 1 1 1 1 1 1 0 0 0 0 0 0 0 0 0 0
2 2 1 1 0 0 1 1 1 1 0 0 1 1 2 2 3 3 2 2 2 2 2 1 1 1 1 1 1 0 0 0 0 0 0 0 0 0
2 2 1 1 0 0 1 1 1 1 1 0 0 0 1 1 1 1 1 1 1 1 2 2 2 2 2 2 1 0 0 0 0 0 0 0 0 0
3 2 1 1 0 0 1 1 1 1 1 0 0 0 0 0 0 0 1 1 1 1 2 2 2 2 2 1 1 1 0 0 0 0 0 0 0 0
2 2 1 0 0 0 0 1 1 1 1 0 0 0 1 1 1 1 1 1 1 1 1 1 1 1 1 1 1 1 1 1 0 0 0 0 0 0
2 2 1 0 0 0 0 0 0 0 0 0 0 0 0 1 1 1 1 1 1 1 1 1 1 1 1 1 1 1 1 1 1 1 1 1 0 0
1 1 1 0 0 0 0 0 0 0 0 0 0 0 1 1 1 1 1 2 1 1 1 1 1 2 1 1 1 1 1 1 1 2 2 1 1 1
1 1 0 0 0 0 0 0 0 0 0 0 1 1 1 1 1 1 2 2 2 1 1 2 2 2 2 1 1 1 1 1 2 3 3 2 2 1
0 0 0 0 0 0 0 1 1 1 1 1 1 2 1 1 2 2 2 2 1 1 1 2 2 2 2 1 1 1 1 1 2 3 3 2 2 1
0 0 0 0 1 1 1 1 1 1 2 2 2 2 1 1 2 2 2 2 1 1 1 1 2 2 1 1 1 1 1 1 2 2 2 2 1 1
0 0 0 0 1 1 1 1 1 1 2 2 2 1 1 1 1 2 1 1 1 1 1 2 2 2 1 1 1 1 1 1 1 1 1 1 1 1
0 0 0 0 0 1 1 1 1 1 1 1 1 1 1 1 1 1 1 1 1 1 1 2 2 1 1 1 1 1 0 1 1 1 1 1 1 1
0 0 0 0 0 1 1 0 1 1 1 1 1 1 1 1 1 1 1 1 1 1 1 1 1 1 1 1 1 1 0 0 1 1 1 1 1 1
0 0 0 0 0 1 1 1 1 1 1 1 1 1 1 1 1 1 1 1 1 1 1 1 1 1 1 1 1 1 0 0 0 0 0 0 1 1
0 0 1 0 0 1 1 1 1 1 1 1 1 1 1 1 1 1 1 1 1 1 1 1 1 2 1 1 1 1 0 0 0 1 0 0 0 0
Wind_Speed
5 5 4 2 3 2 2 4 4 4 3 4 4 3 3 2 2 5 4 5 5 5 5 5 6 6 7 7 7 8 8 8 9 9 10 10 11 11
3 3 3 3 2 3 3 3 3 4 3 1 2 2 1 3 4 5 6 5 8 8 8 7 8 8 8 8 8 9 9 9 10 10 10 10 11 11
5 6 5 3 3 3 3 3 3 4 4 2 2 2 3 6 3 5 6 7 7 11 10 9 9 9 9 9 10 10 10 10 11 11 11 12 12 12
7 6 6 5 5 4 3 4 3 3 5 4 3 4 5 5 6 7 7 7 7 7 10 11 11 11 11 11 11 11 11 11 12 12 12 12 13 13
7 7 7 6 7 5 5 5 4 5 5 5 5 3 5 5 6 8 9 6 9 7 11 13 13 12 12 13 13 12 12 13 13 13 13 13 13 13
8 8 8 8 8 7 6 6 6 5 5 6 6 5 5 5 6 7 7 6 7 8 7 7 10 13 15 15 15 14 14 14 13 13 13 13 13 13
9 9 9 7 5 5 6 6 6 7 7 7 7 6 6 5 6 6 7 7 7 7 8 8 8 9 10 14 17 16 15 14 14 14 14 14 14 14
9 9 8 9 9 8 8 7 7 8 8 7 7 7 7 7 6 7 8 8 8 6 6 8 9 9 9 10 7 10 13 14 14 14 14 14 15 15
9 8 8 8 10 10 11 12 12 12 11 10 11 10 9 8 8 10 8 9 10 9 9 11 10 10 10 9 7 9 12 13 14 14 15 15 15 15
10 10 10 9 9 9 10 10 11 11 12 12 11 11 10 8 8 9 10 11 12 10 9 11 10 10 10 9 8 11 14 14 15 15 16 16 16 16
11 11 10 10 6 6 9 10 10 9 8 9 9 9 9 8 7 8 9 10 11 10 7 9 10 10 10 10 9 11 14 15 16 16 16 17 17 15
9 9 9 9 6 8 9 10 10 9 8 6 8 10 11 11 12 11 10 10 11 10 8 8 10 10 11 9 9 8 9 13 17 18 18 18 16 12
8 8 6 10 9 9 9 9 7 6 7 8 8 8 8 8 9 9 9 9 10 11 9 8 10 10 11 12 11 10 10 10 10 11 15 18 17 14
7 6 4 9 9 9 8 6 5 5 7 7 8 7 7 7 7 7 8 9 10 13 12 11 10 10 12 13 12 10 10 10 10 11 11 11 14 18
5 1 2 6 7 7 9 8 7 7 7 8 8 8 8 7 7 7 10 10 12 13 12 12 12 11 11 13 13 12 12 11 11 11 11 11 11 10
6 4 5 6 6 5 5 8 8 7 7 8 8 8 8 7 8 8 9 8 9 10 10 11 12 13 12 13 12 13 12 12 11 11 11 11 11 12
5 5 5 5 6 6 6 5 6 6 7 8 8 8 8 8 8 8 8 9 10 11 10 8 9 9 12 12 12 12 12 12 12 11 10 12 12 12
4 5 5 5 6 5 6 6 6 7 7 7 8 9 9 9 9 8 9 9 10 10 10 10 9 9 10 11 11 13 12 11 11 11 11 13 13 12
5 5 5 5 5 5 5 6 6 6 6 7 8 8 8 8 9 9 9 9 9 10 10 10 9 10 12 13 11 8 11 11 12 12 11 12 13 12
4 4 4 4 4 5 5 6 6 6 6 7 7 8 8 8 9 9 9 10 10 11 11 10 9 9 11 13 13 12 11 13 12 13 13 12 13 13
3 3 4 4 4 5 5 6 7 7 7 7 7 8 8 8 9 9 10 11 11 11 11 11 8 8 10 10 11 12 12 11 12 12 14 14 14 13
2 3 3 4 5 5 5 5 6 6 7 7 7 7 7 8 9 11 10 10 10 10 12 11 9 8 9 11 13 14 15 13 12 15 17 17 14 13
2 3 4 4 4 4 5 6 8 7 7 7 7 7 8 8 8 9 10 10 10 11 11 10 10 9 10 11 12 13 16 16 13 12 12 13 18 21
Wind_Direction
187 188 215 189 223 234 249 265 270 258 216 177 217 188 229 238 164 241 247 171 207 239 253 263 270 272 272 272 271 270 269 268 270 271 271 271 272 270
198 187 211 207 199 217 229 243 264 278 282 173 214 220 274 270 187 249 262 195 219 231 243 253 261 265 265 266 266 265 265 265 266 265 265 265 266 267
192 190 203 219 218 213 215 227 239 255 263 251 227 206 236 267 257 260 258 256 240 206 222 241 253 259 261 261 261 262 262 263 263 264 264 264 264 264
201 200 203 198 209 237 229 233 239 260 263 268 259 235 226 243 254 265 268 265 274 207 209 231 246 252 255 258 259 260 261 261 262 264 264 264 265 264
204 206 208 207 213 218 230 237 233 229 246 259 258 261 255 250 259 259 263 263 271 248 215 223 233 242 249 252 253 255 256 257 259 260 261 262 263 264
211 214 217 216 219 222 224 234 245 248 240 252 258 254 252 249 254 266 267 254 264 278 275 258 234 227 236 241 244 246 248 251 254 255 257 258 259 260
214 219 223 226 237 241 249 235 233 243 248 249 256 260 261 267 268 277 281 283 272 270 274 272 261 253 241 233 233 238 242 245 249 252 254 255 256 257
219 221 222 214 217 224 250 263 269 257 262 267 268 271 276 275 280 283 284 284 284 281 283 282 281 278 273 269 248 218 229 240 247 250 253 255 255 254
223 225 232 219 209 224 220 225 239 246 253 263 271 274 279 278 282 277 275 281 286 294 291 282 280 277 276 273 237 230 237 243 248 251 253 254 254 255
226 227 233 238 228 230 238 236 237 233 230 234 252 264 272 284 277 274 282 278 271 263 261 273 280 280 282 281 251 232 236 242 246 249 252 254 254 254
230 229 232 236 215 210 241 248 252 253 239 233 252 269 285 283 276 274 271 273 277 279 268 271 280 284 283 280 269 231 229 236 242 246 248 250 251 254
223 227 224 235 212 198 233 247 253 257 265 245 235 243 250 247 231 241 261 270 277 282 281 278 282 286 284 280 281 277 256 242 236 239 241 243 243 250
228 224 213 192 208 211 231 249 258 274 270 263 258 253 247 247 242 237 244 260 273 278 287 289 286 286 284 287 284 279 278 278 268 256 242 237 235 235
240 240 206 168 192 209 222 237 242 252 257 258 259 260 262 261 260 262 257 257 260 270 280 283 279 280 283 284 285 285 282 280 280 279 279 262 236 232
244 243 133 162 188 210 220 219 224 237 246 253 257 260 265 272 275 270 262 254 253 258 262 262 265 272 274 277 282 284 284 281 276 275 276 274 272 262
227 193 179 195 224 244 220 215 229 241 251 259 265 270 273 269 265 270 276 278 276 276 267 260 259 265 270 274 278 281 281 281 280 277 276 277 274 269
201 212 217 213 221 226 232 237 239 237 239 252 265 272 274 275 276 278 280 282 281 284 288 282 271 266 268 273 277 278 281 282 282 282 281 278 274 272
201 220 225 227 232 236 241 244 244 249 255 260 264 269 275 280 282 282 280 278 280 283 286 290 291 286 279 269 254 271 278 283 288 288 285 281 278 276
213 228 234 238 242 248 255 262 266 265 267 268 271 275 279 281 282 283 284 284 284 286 288 290 288 285 285 286 283 256 282 290 288 285 283 280 281 282
231 242 248 253 259 265 268 271 274 275 270 271 276 280 282 284 284 284 284 284 285 286 285 283 281 283 285 291 296 293 274 277 284 286 288 286 282 279
236 253 263 270 271 270 272 274 275 276 279 283 281 282 285 286 284 283 283 284 282 283 285 286 288 282 283 285 282 282 284 269 263 273 285 287 286 285
271 271 275 275 274 277 277 277 278 278 280 280 287 291 290 288 287 288 290 291 288 285 287 289 292 287 283 280 282 286 288 289 278 258 252 256 270 279
288 290 287 284 287 288 288 287 287 290 293 292 290 289 289 289 288 287 287 288 291 294 295 295 294 289 283 280 283 287 292 295 292 290 280 261 245 250